User: anonymous   Login
Location: Cercedilla
(40.7379°N, 4.0638°W)
Time: 13:55:37
(UTC+00:00)
Language:

Cosmos 1538 Rocket - Orbit

View from above orbital plane
View from above orbital plane
View from above satellite
View from above satellite

Ground track
Ground track

The orbit data is extracted from the following two-line orbital elements,

1 14760U 84019B   20218.64712456 +.00000072 +00000-0 +33525-4 0  9999
2 14760 074.0431 180.4385 0026782 120.2672 240.1136 14.35887690907771
Epoch (UTC): 05 August 2020 15:31:51
Eccentricity: 0.0026782
inclination: 74.0431°
perigee height: 753 km
apogee height: 791 km
right ascension of ascending node: 180.4385°
argument of perigee: 120.2672°
revolutions per day: 14.35887690
mean anomaly at epoch: 240.1136°
orbit number at epoch: 90777

The dashed part of the orbit path shows where the satellite is in the earth's shadow,  

DLR